| time (UTC) | temp F | wind direction | speed MPH | gust MPH | rain 1hr in | rain 24hr in | rain mn in | humidity % | barometer mb |
| 20260901061546 | 76 | 194 | 3.0 | 10.0 | 0.00 | 0.07 | 0.00 | 75 | 1013.4 |
| 20260901061052 | 76 | 194 | 2.0 | 10.0 | 0.00 | 0.07 | 0.00 | 75 | 1013.4 |
| 20260901060559 | 77 | 169 | 2.0 | 7.0 | 0.00 | 0.07 | 0.00 | 75 | 1013.6 |
| 20260901060504 | 77 | 205 | 2.0 | 8.0 | 0.00 | 0.07 | 0.00 | 75 | 1013.6 |
| 20260901060006 | 77 | 360 | 3.0 | 10.0 | 0.00 | 0.09 | 0.00 | 75 | 1013.6 |
| 20260901055516 | 77 | 182 | 3.0 | 10.0 | 0.00 | 0.09 | 0.00 | 75 | 1013.6 |
| 20260901055059 | 77 | 161 | 4.0 | 9.0 | 0.00 | 0.09 | 0.00 | 75 | 1013.8 |
| 20260901054549 | 77 | 360 | 2.0 | 10.0 | 0.00 | 0.09 | 0.00 | 74 | 1014.0 |
| 20260901054058 | 77 | 178 | 2.0 | 9.0 | 0.00 | 0.09 | 0.00 | 74 | 1014.1 |
| 20260901053511 | 77 | 171 | 3.0 | 11.0 | 0.00 | 0.09 | 0.00 | 73 | 1014.2 |
| 20260901053009 | 77 | 175 | 3.0 | 11.0 | 0.00 | 0.09 | 0.00 | 74 | 1014.2 |
| 20260901052525 | 77 | 200 | 3.0 | 9.0 | 0.00 | 0.09 | 0.00 | 74 | 1014.2 |
| 20260901052025 | 77 | 189 | 3.0 | 7.0 | 0.00 | 0.09 | 0.00 | 72 | 1014.2 |
| 20260901051527 | 77 | 194 | 2.0 | 7.0 | 0.00 | 0.09 | 0.00 | 72 | 1014.2 |
| 20260901051038 | 77 | 184 | 2.0 | 8.0 | 0.00 | 0.09 | 0.00 | 72 | 1014.3 |
| 20260901050548 | 77 | 178 | 3.0 | 8.0 | 0.00 | 0.09 | 0.00 | 71 | 1014.5 |
| 20260901045503 | 77 | 205 | 1.0 | 12.0 | 0.00 | 0.15 | 0.00 | 71 | 1014.7 |
| 20260901045056 | 77 | 194 | 3.0 | 12.0 | 0.00 | 0.15 | 0.00 | 70 | 1014.6 |
| 20260901044613 | 77 | 170 | 3.0 | 10.0 | 0.00 | 0.15 | 0.00 | 71 | 1014.6 |
| 20260901044028 | 77 | 192 | 2.0 | 7.0 | 0.00 | 0.15 | 0.00 | 71 | 1014.5 |
| 20260901043535 | 77 | 192 | 2.0 | 8.0 | 0.00 | 0.15 | 0.00 | 71 | 1014.4 |
| 20260901043048 | 77 | 194 | 2.0 | 8.0 | 0.00 | 0.15 | 0.00 | 71 | 1014.3 |
| 20260901042553 | 77 | 205 | 1.0 | 4.0 | 0.00 | 0.15 | 0.00 | 71 | 1014.4 |
| 20260901042037 | 76 | 213 | 1.0 | 6.0 | 0.00 | 0.15 | 0.00 | 71 | 1014.3 |
| 20260901041541 | 76 | 185 | 1.0 | 5.0 | 0.00 | 0.15 | 0.00 | 71 | 1014.4 |
| 20260901041050 | 76 | 185 | 2.0 | 5.0 | 0.00 | 0.15 | 0.00 | 71 | 1014.4 |
| 20260901040535 | 76 | 360 | 2.0 | 5.0 | 0.00 | 0.15 | 0.00 | 71 | 1014.5 |
| 20260901040041 | 76 | 194 | 1.0 | 4.0 | 0.00 | 0.21 | 0.15 | 71 | 1014.6 |
| 20260901035513 | 76 | 184 | 1.0 | 4.0 | 0.00 | 0.21 | 0.15 | 72 | 1014.6 |
| 20260901035108 | 76 | 200 | 1.0 | 4.0 | 0.00 | 0.21 | 0.15 | 72 | 1014.6 |
| 20260901034600 | 76 | 195 | 1.0 | 4.0 | 0.00 | 0.21 | 0.15 | 72 | 1014.6 |
| 20260901034040 | 76 | 191 | 1.0 | 4.0 | 0.00 | 0.21 | 0.15 | 72 | 1014.6 |
| 20260901033552 | 76 | 196 | 1.0 | 4.0 | 0.00 | 0.21 | 0.15 | 72 | 1014.6 |
| 20260901033102 | 76 | 202 | 1.0 | 4.0 | 0.00 | 0.21 | 0.15 | 72 | 1014.6 |
| 20260901032504 | 76 | 186 | 1.0 | 5.0 | 0.00 | 0.21 | 0.15 | 72 | 1014.5 |
| 20260901032101 | 76 | 187 | 1.0 | 5.0 | 0.00 | 0.21 | 0.15 | 72 | 1014.6 |
| 20260901031559 | 76 | 225 | 1.0 | 6.0 | 0.00 | 0.21 | 0.15 | 73 | 1014.6 |
| 20260901031100 | 76 | 183 | 3.0 | 6.0 | 0.00 | 0.21 | 0.15 | 73 | 1014.7 |
| 20260901030508 | 76 | 179 | 1.0 | 4.0 | 0.00 | 0.21 | 0.15 | 73 | 1014.6 |
| 20260901030038 | 76 | 179 | 1.0 | 4.0 | 0.00 | 0.21 | 0.15 | 74 | 1014.7 |
| 20260901025547 | 76 | 205 | 1.0 | 4.0 | 0.00 | 0.21 | 0.15 | 73 | 1014.6 |
| 20260901025022 | 76 | 197 | 1.0 | 4.0 | 0.00 | 0.21 | 0.15 | 73 | 1014.7 |
| 20260901024512 | 76 | 196 | 1.0 | 6.0 | 0.00 | 0.21 | 0.15 | 73 | 1014.7 |
| 20260901024022 | 76 | 360 | 2.0 | 6.0 | 0.00 | 0.21 | 0.15 | 73 | 1014.7 |
| 20260901023531 | 76 | 192 | 1.0 | 3.0 | 0.00 | 0.21 | 0.15 | 74 | 1014.7 |
| 20260901023040 | 76 | 194 | 1.0 | 3.0 | 0.00 | 0.21 | 0.15 | 74 | 1014.7 |
| 20260901022542 | 76 | 194 | 1.0 | 5.0 | 0.00 | 0.21 | 0.15 | 75 | 1014.9 |
| 20260901022036 | 75 | 195 | 1.0 | 5.0 | 0.00 | 0.21 | 0.15 | 77 | 1014.8 |
| 20260901021602 | 75 | 195 | 1.0 | 5.0 | 0.00 | 0.21 | 0.15 | 78 | 1014.8 |
| 20260901021030 | 75 | 178 | 2.0 | 5.0 | 0.00 | 0.21 | 0.15 | 79 | 1014.9 |
| 20260901020540 | 74 | 161 | 2.0 | 5.0 | 0.00 | 0.21 | 0.15 | 80 | 1014.9 |
| 20260901020110 | 74 | 244 | 2.0 | 4.0 | 0.00 | 0.22 | 0.15 | 82 | 1014.9 |
| 20260901015505 | 74 | 209 | 0.0 | 4.0 | 0.00 | 0.22 | 0.15 | 86 | 1014.9 |
| 20260901015056 | 73 | 209 | 1.0 | 4.0 | 0.00 | 0.22 | 0.15 | 87 | 1015.0 |
| 20260901014506 | 73 | 277 | 0.0 | 0.0 | 0.00 | 0.22 | 0.15 | 87 | 1015.1 |
| 20260901014048 | 73 | 276 | 0.0 | 0.0 | 0.00 | 0.22 | 0.15 | 87 | 1015.1 |
| 20260901013554 | 74 | 279 | 0.0 | 0.0 | 0.00 | 0.22 | 0.15 | 87 | 1015.2 |
| 20260901013105 | 74 | 281 | 0.0 | 0.0 | 0.00 | 0.22 | 0.15 | 87 | 1015.3 |
| 20260901012603 | 74 | 281 | 0.0 | 2.0 | 0.00 | 0.22 | 0.15 | 87 | 1015.3 |
| 20260901012502 | 74 | 281 | 0.0 | 2.0 | 0.00 | 0.22 | 0.15 | 86 | 1015.3 |
| 20260901012001 | 74 | 281 | 0.0 | 2.0 | 0.00 | 0.22 | 0.15 | 86 | 1015.4 |
| 20260901011512 | 74 | 281 | 0.0 | 2.0 | 0.00 | 0.22 | 0.15 | 86 | 1015.3 |
| 20260901011022 | 74 | 229 | 0.0 | 2.0 | 0.00 | 0.22 | 0.15 | 86 | 1015.3 |
| 20260901010529 | 74 | 229 | 0.0 | 3.0 | 0.00 | 0.22 | 0.15 | 86 | 1015.4 |
| 20260901010044 | 74 | 228 | 1.0 | 3.0 | 0.00 | 0.23 | 0.15 | 86 | 1015.4 |
| 20260901005548 | 74 | 229 | 0.0 | 2.0 | 0.00 | 0.23 | 0.15 | 86 | 1015.4 |
| 20260901005051 | 74 | 229 | 0.0 | 2.0 | 0.00 | 0.23 | 0.15 | 85 | 1015.4 |
| 20260901004557 | 74 | 229 | 0.0 | 2.0 | 0.00 | 0.23 | 0.15 | 86 | 1015.3 |
| 20260901004004 | 74 | 229 | 0.0 | 2.0 | 0.00 | 0.23 | 0.15 | 85 | 1015.4 |
| 20260901003519 | 74 | 228 | 0.0 | 1.0 | 0.00 | 0.23 | 0.15 | 85 | 1015.4 |
| 20260901003022 | 75 | 228 | 0.0 | 1.0 | 0.00 | 0.23 | 0.15 | 84 | 1015.3 |
| 20260901002516 | 75 | 228 | 0.0 | 3.0 | 0.00 | 0.23 | 0.15 | 84 | 1015.2 |
| 20260901002022 | 75 | 228 | 0.0 | 3.0 | 0.00 | 0.23 | 0.15 | 83 | 1015.2 |
| 20260901001534 | 75 | 228 | 1.0 | 3.0 | 0.00 | 0.23 | 0.15 | 83 | 1015.1 |
| 20260901001044 | 75 | 227 | 1.0 | 4.0 | 0.00 | 0.23 | 0.15 | 83 | 1015.1 |
| 20260901000551 | 75 | 215 | 0.0 | 2.0 | 0.00 | 0.23 | 0.15 | 83 | 1015.1 |
| 20260901000002 | 75 | 213 | 0.0 | 5.0 | 0.00 | 0.23 | 0.15 | 83 | 1014.9 |
| 20260831235513 | 75 | 214 | 1.0 | 5.0 | 0.00 | 0.23 | 0.15 | 83 | 1014.8 |
| 20260831235053 | 75 | 304 | 0.0 | 4.0 | 0.00 | 0.23 | 0.15 | 83 | 1014.8 |
| 20260831234555 | 76 | 254 | 0.0 | 4.0 | 0.00 | 0.23 | 0.15 | 83 | 1014.7 |
| 20260831234029 | 76 | 255 | 0.0 | 2.0 | 0.00 | 0.23 | 0.15 | 83 | 1014.8 |
| 20260831233535 | 76 | 256 | 0.0 | 2.0 | 0.00 | 0.23 | 0.15 | 82 | 1014.7 |
| 20260831233044 | 77 | 256 | 0.0 | 1.0 | 0.00 | 0.23 | 0.15 | 82 | 1014.8 |
| 20260831232539 | 77 | 256 | 0.0 | 1.0 | 0.00 | 0.23 | 0.15 | 82 | 1014.9 |
| 20260831232034 | 77 | 256 | 0.0 | 2.0 | 0.00 | 0.23 | 0.15 | 82 | 1015.0 |
| 20260831231536 | 77 | 256 | 0.0 | 2.0 | 0.00 | 0.23 | 0.15 | 81 | 1015.0 |
| 20260831231022 | 77 | 256 | 0.0 | 2.0 | 0.00 | 0.23 | 0.15 | 82 | 1015.0 |
| 20260831230526 | 77 | 256 | 0.0 | 2.0 | 0.00 | 0.23 | 0.15 | 82 | 1015.0 |
| 20260831230030 | 77 | 256 | 0.0 | 2.0 | 0.00 | 0.23 | 0.15 | 82 | 1015.2 |
| 20260831225535 | 77 | 256 | 0.0 | 3.0 | 0.00 | 0.23 | 0.15 | 83 | 1015.4 |
| 20260831225045 | 77 | 255 | 1.0 | 4.0 | 0.00 | 0.23 | 0.15 | 83 | 1015.4 |
| 20260831224552 | 77 | 254 | 1.0 | 4.0 | 0.00 | 0.23 | 0.15 | 84 | 1015.7 |
| 20260831224035 | 77 | 254 | 1.0 | 3.0 | 0.00 | 0.23 | 0.15 | 84 | 1015.8 |
| 20260831223537 | 77 | 254 | 1.0 | 3.0 | 0.00 | 0.23 | 0.15 | 84 | 1015.9 |
| 20260831223044 | 77 | 254 | 0.0 | 0.0 | 0.00 | 0.23 | 0.15 | 85 | 1015.8 |
| 20260831222533 | 77 | 256 | 0.0 | 0.0 | 0.00 | 0.23 | 0.15 | 85 | 1015.7 |
| 20260831222009 | 77 | 256 | 0.0 | 0.0 | 0.00 | 0.23 | 0.15 | 84 | 1015.6 |
| 20260831221602 | 77 | 256 | 0.0 | 0.0 | 0.00 | 0.23 | 0.15 | 85 | 1015.5 |
| 20260831221501 | 77 | 256 | 0.0 | 0.0 | 0.00 | 0.23 | 0.15 | 85 | 1015.6 |
| 20260831221059 | 76 | 256 | 0.0 | 0.0 | 0.00 | 0.23 | 0.15 | 85 | 1015.6 |
| 20260831220507 | 77 | 256 | 0.0 | 0.0 | 0.00 | 0.23 | 0.15 | 85 | 1015.5 |
| 20260831220022 | 76 | 256 | 0.0 | 0.0 | 0.00 | 0.25 | 0.15 | 85 | 1015.6 |
| 20260831215522 | 76 | 256 | 0.0 | 0.0 | 0.00 | 0.25 | 0.15 | 85 | 1015.6 |
| 20260831215035 | 76 | 256 | 0.0 | 0.0 | 0.00 | 0.25 | 0.15 | 85 | 1015.7 |
| 20260831214535 | 76 | 256 | 0.0 | 0.0 | 0.00 | 0.25 | 0.15 | 85 | 1015.7 |
| 20260831214046 | 76 | 256 | 0.0 | 0.0 | 0.00 | 0.25 | 0.15 | 85 | 1015.7 |
| 20260831213553 | 76 | 256 | 0.0 | 0.0 | 0.00 | 0.25 | 0.15 | 85 | 1015.8 |
| 20260831213056 | 76 | 256 | 0.0 | 0.0 | 0.00 | 0.25 | 0.15 | 85 | 1015.8 |
| 20260831212504 | 76 | 256 | 0.0 | 0.0 | 0.00 | 0.25 | 0.15 | 86 | 1015.7 |
| 20260831212007 | 76 | 256 | 0.0 | 1.0 | 0.00 | 0.25 | 0.15 | 86 | 1015.7 |
| 20260831211516 | 76 | 256 | 0.0 | 1.0 | 0.00 | 0.25 | 0.15 | 85 | 1015.6 |
| 20260831211101 | 76 | 256 | 0.0 | 1.0 | 0.00 | 0.25 | 0.15 | 85 | 1015.8 |
| 20260831210548 | 76 | 256 | 0.0 | 0.0 | 0.00 | 0.25 | 0.15 | 85 | 1015.9 |
| 20260831210054 | 76 | 256 | 0.0 | 1.0 | 0.00 | 0.27 | 0.15 | 84 | 1015.8 |
| 20260831205555 | 76 | 256 | 0.0 | 3.0 | 0.00 | 0.27 | 0.15 | 84 | 1016.0 |
| 20260831205100 | 76 | 256 | 0.0 | 3.0 | 0.00 | 0.27 | 0.15 | 84 | 1016.1 |
| 20260831204511 | 76 | 256 | 1.0 | 3.0 | 0.00 | 0.27 | 0.15 | 84 | 1016.2 |
| 20260831204050 | 76 | 256 | 0.0 | 3.0 | 0.00 | 0.27 | 0.15 | 84 | 1016.0 |
| 20260831203553 | 76 | 256 | 0.0 | 3.0 | 0.00 | 0.27 | 0.15 | 84 | 1016.0 |
| 20260831203046 | 76 | 256 | 0.0 | 2.0 | 0.00 | 0.27 | 0.15 | 84 | 1016.1 |
| 20260831202539 | 76 | 256 | 0.0 | 3.0 | 0.00 | 0.27 | 0.15 | 84 | 1016.1 |
| 20260831202046 | 76 | 256 | 0.0 | 3.0 | 0.00 | 0.27 | 0.15 | 84 | 1016.1 |
| 20260831201538 | 76 | 255 | 1.0 | 3.0 | 0.00 | 0.27 | 0.15 | 84 | 1016.2 |
| 20260831201038 | 76 | 256 | 1.0 | 3.0 | 0.00 | 0.27 | 0.15 | 83 | 1016.1 |
| 20260831200523 | 76 | 254 | 0.0 | 2.0 | 0.00 | 0.27 | 0.15 | 83 | 1016.2 |
| 20260831200039 | 76 | 255 | 0.0 | 3.0 | 0.00 | 0.27 | 0.15 | 83 | 1016.2 |
| 20260831195519 | 76 | 255 | 1.0 | 3.0 | 0.00 | 0.27 | 0.15 | 83 | 1016.4 |
| 20260831195023 | 76 | 257 | 1.0 | 3.0 | 0.00 | 0.27 | 0.15 | 83 | 1016.3 |
| 20260831194633 | 76 | 257 | 0.0 | 3.0 | 0.00 | 0.27 | 0.15 | 83 | 1016.4 |
| 20260831194501 | 76 | 257 | 1.0 | 3.0 | 0.00 | 0.27 | 0.15 | 83 | 1016.4 |
| 20260831194044 | 76 | 257 | 1.0 | 3.0 | 0.00 | 0.27 | 0.15 | 84 | 1016.5 |
| 20260831193547 | 76 | 256 | 0.0 | 4.0 | 0.00 | 0.27 | 0.15 | 83 | 1016.6 |
| 20260831193053 | 76 | 256 | 2.0 | 4.0 | 0.00 | 0.27 | 0.15 | 82 | 1016.6 |
| 20260831192559 | 77 | 257 | 1.0 | 4.0 | 0.00 | 0.27 | 0.15 | 82 | 1016.6 |
| 20260831192503 | 77 | 256 | 1.0 | 4.0 | 0.00 | 0.27 | 0.15 | 82 | 1016.7 |
| 20260831192056 | 77 | 31 | 0.0 | 4.0 | 0.00 | 0.27 | 0.15 | 83 | 1016.8 |
| 20260831191541 | 77 | 242 | 1.0 | 5.0 | 0.00 | 0.27 | 0.15 | 82 | 1016.7 |
| 20260831191029 | 77 | 360 | 1.0 | 5.0 | 0.00 | 0.27 | 0.15 | 81 | 1016.8 |
| 20260831190535 | 77 | 249 | 2.0 | 5.0 | 0.00 | 0.27 | 0.15 | 81 | 1016.8 |
| 20260831190019 | 77 | 237 | 2.0 | 6.0 | 0.00 | 0.27 | 0.15 | 80 | 1016.9 |
| 20260831185523 | 77 | 360 | 3.0 | 6.0 | 0.00 | 0.27 | 0.15 | 79 | 1016.8 |
| 20260831185034 | 78 | 360 | 2.0 | 6.0 | 0.00 | 0.27 | 0.15 | 78 | 1016.9 |
| 20260831184602 | 78 | 253 | 3.0 | 6.0 | 0.00 | 0.27 | 0.15 | 77 | 1016.9 |
| 20260831184045 | 78 | 360 | 3.0 | 6.0 | 0.00 | 0.27 | 0.15 | 77 | 1016.8 |
| 20260831183551 | 78 | 261 | 3.0 | 6.0 | 0.00 | 0.27 | 0.15 | 76 | 1016.9 |
| 20260831183103 | 78 | 223 | 2.0 | 7.0 | 0.00 | 0.27 | 0.15 | 77 | 1016.8 |
| 20260831182539 | 78 | 221 | 1.0 | 7.0 | 0.00 | 0.27 | 0.15 | 76 | 1016.9 |
| 20260831182003 | 79 | 236 | 3.0 | 5.0 | 0.00 | 0.27 | 0.15 | 75 | 1016.8 |
| 20260831181550 | 79 | 246 | 1.0 | 6.0 | 0.00 | 0.27 | 0.15 | 74 | 1016.8 |
| 20260831181056 | 80 | 257 | 1.0 | 7.0 | 0.00 | 0.27 | 0.15 | 74 | 1016.8 |
| 20260831180505 | 80 | 247 | 2.0 | 10.0 | 0.00 | 0.27 | 0.15 | 72 | 1016.7 |
| 20260831180005 | 81 | 200 | 4.0 | 10.0 | 0.00 | 0.27 | 0.15 | 71 | 1016.6 |
| 20260831175513 | 81 | 360 | 2.0 | 8.0 | 0.00 | 0.27 | 0.15 | 72 | 1016.6 |
| 20260831175027 | 81 | 360 | 2.0 | 8.0 | 0.00 | 0.27 | 0.15 | 71 | 1016.7 |
| 20260831174532 | 81 | 254 | 3.0 | 9.0 | 0.00 | 0.27 | 0.15 | 69 | 1016.6 |
| 20260831174009 | 82 | 360 | 4.0 | 9.0 | 0.00 | 0.27 | 0.15 | 69 | 1016.6 |
| 20260831173555 | 82 | 360 | 3.0 | 8.0 | 0.00 | 0.27 | 0.15 | 70 | 1016.7 |
| 20260831173003 | 82 | 257 | 4.0 | 9.0 | 0.00 | 0.27 | 0.15 | 71 | 1016.7 |
| 20260831172507 | 81 | 244 | 3.0 | 11.0 | 0.00 | 0.27 | 0.15 | 71 | 1016.6 |
| 20260831172019 | 81 | 360 | 4.0 | 11.0 | 0.00 | 0.27 | 0.15 | 71 | 1016.6 |
| 20260831171521 | 80 | 220 | 2.0 | 10.0 | 0.00 | 0.27 | 0.15 | 73 | 1016.7 |
| 20260831171007 | 80 | 360 | 5.0 | 10.0 | 0.00 | 0.27 | 0.15 | 72 | 1016.8 |
| 20260831170555 | 80 | 206 | 1.0 | 9.0 | 0.00 | 0.27 | 0.15 | 74 | 1016.7 |
| 20260831170001 | 80 | 198 | 4.0 | 10.0 | 0.00 | 0.28 | 0.15 | 74 | 1016.8 |
| 20260831165508 | 79 | 224 | 5.0 | 10.0 | 0.00 | 0.28 | 0.15 | 73 | 1016.8 |
| 20260831165050 | 79 | 270 | 2.0 | 10.0 | 0.00 | 0.28 | 0.15 | 74 | 1016.9 |
| 20260831164554 | 79 | 224 | 6.0 | 10.0 | 0.00 | 0.28 | 0.15 | 73 | 1016.9 |
| 20260831164001 | 79 | 360 | 4.0 | 9.0 | 0.00 | 0.28 | 0.15 | 75 | 1017.0 |
| 20260831163519 | 79 | 235 | 3.0 | 11.0 | 0.00 | 0.28 | 0.15 | 74 | 1017.0 |
| 20260831163024 | 79 | 226 | 4.0 | 11.0 | 0.00 | 0.28 | 0.15 | 75 | 1017.0 |
| 20260831162526 | 79 | 244 | 3.0 | 8.0 | 0.00 | 0.28 | 0.15 | 76 | 1017.0 |
| 20260831162031 | 78 | 230 | 2.0 | 9.0 | 0.00 | 0.28 | 0.15 | 77 | 1017.0 |
| 20260831161533 | 78 | 245 | 3.0 | 9.0 | 0.00 | 0.28 | 0.15 | 77 | 1016.9 |
| 20260831161042 | 77 | 360 | 1.0 | 8.0 | 0.00 | 0.28 | 0.15 | 79 | 1016.9 |
| 20260831160548 | 77 | 194 | 1.0 | 6.0 | 0.00 | 0.28 | 0.15 | 80 | 1017.0 |
| 20260831160056 | 76 | 215 | 1.0 | 6.0 | 0.00 | 0.28 | 0.15 | 81 | 1017.1 |
| 20260831155557 | 76 | 211 | 2.0 | 9.0 | 0.00 | 0.28 | 0.15 | 80 | 1017.1 |
| 20260831155005 | 75 | 231 | 4.0 | 10.0 | 0.00 | 0.28 | 0.15 | 80 | 1017.2 |
| 20260831154555 | 75 | 198 | 2.0 | 10.0 | 0.00 | 0.28 | 0.15 | 81 | 1017.3 |
| 20260831154005 | 75 | 177 | 2.0 | 4.0 | 0.00 | 0.28 | 0.15 | 82 | 1017.2 |
| 20260831153523 | 74 | 240 | 2.0 | 5.0 | 0.00 | 0.28 | 0.15 | 82 | 1017.2 |
| 20260831153100 | 74 | 180 | 1.0 | 6.0 | 0.00 | 0.28 | 0.15 | 82 | 1017.2 |
| 20260831152508 | 74 | 189 | 1.0 | 5.0 | 0.00 | 0.28 | 0.15 | 81 | 1017.1 |
| 20260831152024 | 74 | 150 | 2.0 | 6.0 | 0.00 | 0.28 | 0.15 | 82 | 1017.1 |
| 20260831151522 | 74 | 184 | 2.0 | 7.0 | 0.00 | 0.28 | 0.15 | 81 | 1017.2 |
| 20260831151035 | 74 | 181 | 3.0 | 7.0 | 0.00 | 0.28 | 0.15 | 81 | 1017.2 |
| 20260831150544 | 74 | 194 | 2.0 | 8.0 | 0.00 | 0.28 | 0.15 | 82 | 1017.1 |
| 20260831150050 | 73 | 145 | 3.0 | 8.0 | 0.00 | 0.28 | 0.15 | 82 | 1017.0 |
| 20260831145556 | 73 | 209 | 2.0 | 7.0 | 0.00 | 0.28 | 0.15 | 82 | 1016.9 |
| 20260831145103 | 73 | 98 | 3.0 | 6.0 | 0.00 | 0.28 | 0.15 | 82 | 1016.8 |
| 20260831144527 | 73 | 201 | 2.0 | 5.0 | 0.00 | 0.28 | 0.15 | 82 | 1017.0 |
| 20260831144024 | 72 | 180 | 2.0 | 6.0 | 0.00 | 0.28 | 0.15 | 82 | 1016.9 |
| 20260831143515 | 72 | 159 | 1.0 | 9.0 | 0.00 | 0.28 | 0.15 | 82 | 1016.9 |
| 20260831143030 | 72 | 178 | 2.0 | 9.0 | 0.00 | 0.28 | 0.15 | 82 | 1016.9 |
| 20260831142528 | 72 | 167 | 3.0 | 7.0 | 0.00 | 0.28 | 0.15 | 81 | 1016.8 |
| 20260831142030 | 72 | 136 | 3.0 | 7.0 | 0.00 | 0.28 | 0.15 | 82 | 1016.7 |
| 20260831141514 | 72 | 131 | 3.0 | 8.0 | 0.00 | 0.28 | 0.15 | 82 | 1016.7 |
| 20260831141024 | 71 | 136 | 3.0 | 8.0 | 0.00 | 0.28 | 0.15 | 83 | 1016.8 |
| 20260831140532 | 71 | 132 | 3.0 | 10.0 | 0.00 | 0.28 | 0.15 | 83 | 1016.7 |
| 20260831140038 | 71 | 169 | 3.0 | 10.0 | 0.00 | 0.28 | 0.15 | 82 | 1016.8 |
| 20260831135546 | 71 | 185 | 2.0 | 10.0 | 0.00 | 0.28 | 0.15 | 83 | 1016.6 |
| 20260831135026 | 71 | 196 | 2.0 | 7.0 | 0.00 | 0.28 | 0.15 | 82 | 1016.5 |
| 20260831134527 | 70 | 204 | 4.0 | 12.0 | 0.00 | 0.28 | 0.15 | 82 | 1016.7 |
| 20260831134004 | 70 | 153 | 3.0 | 11.0 | 0.00 | 0.28 | 0.15 | 82 | 1016.8 |
| 20260831133511 | 70 | 130 | 3.0 | 9.0 | 0.00 | 0.28 | 0.15 | 82 | 1016.9 |
| 20260831133040 | 70 | 183 | 3.0 | 9.0 | 0.00 | 0.28 | 0.15 | 82 | 1016.9 |
| 20260831132544 | 70 | 156 | 3.0 | 8.0 | 0.00 | 0.28 | 0.15 | 82 | 1016.8 |
| 20260831132039 | 70 | 163 | 4.0 | 8.0 | 0.00 | 0.28 | 0.15 | 82 | 1016.8 |
| 20260831131547 | 70 | 136 | 3.0 | 7.0 | 0.00 | 0.28 | 0.15 | 82 | 1016.8 |
| 20260831131058 | 70 | 200 | 3.0 | 10.0 | 0.00 | 0.28 | 0.15 | 83 | 1017.0 |
| 20260831130544 | 69 | 181 | 3.0 | 12.0 | 0.00 | 0.28 | 0.15 | 83 | 1017.0 |
| 20260831130054 | 69 | 178 | 5.0 | 8.0 | 0.00 | 0.28 | 0.15 | 83 | 1017.2 |
| 20260831125602 | 69 | 151 | 3.0 | 12.0 | 0.00 | 0.28 | 0.15 | 83 | 1017.2 |
| 20260831125003 | 69 | 142 | 4.0 | 12.0 | 0.00 | 0.28 | 0.15 | 82 | 1017.0 |
| 20260831124517 | 69 | 201 | 4.0 | 9.0 | 0.00 | 0.28 | 0.15 | 82 | 1016.9 |
| 20260831124027 | 69 | 184 | 3.0 | 12.0 | 0.00 | 0.28 | 0.15 | 82 | 1016.9 |
| 20260831123536 | 69 | 127 | 5.0 | 12.0 | 0.00 | 0.28 | 0.15 | 82 | 1016.8 |
| 20260831123038 | 69 | 133 | 4.0 | 9.0 | 0.00 | 0.28 | 0.15 | 82 | 1016.9 |
| 20260831122540 | 69 | 156 | 3.0 | 9.0 | 0.00 | 0.28 | 0.15 | 83 | 1016.9 |
| 20260831122048 | 69 | 165 | 4.0 | 9.0 | 0.00 | 0.28 | 0.15 | 83 | 1016.7 |
| 20260831121553 | 69 | 173 | 4.0 | 12.0 | 0.01 | 0.28 | 0.15 | 84 | 1016.7 |
| 20260831121040 | 69 | 193 | 4.0 | 12.0 | 0.01 | 0.28 | 0.15 | 84 | 1016.8 |
| 20260831120546 | 69 | 192 | 4.0 | 10.0 | 0.01 | 0.28 | 0.15 | 85 | 1016.8 |
| 20260831120040 | 68 | 119 | 3.0 | 10.0 | 0.01 | 0.28 | 0.15 | 85 | 1016.6 |
| 20260831115548 | 68 | 138 | 3.0 | 10.0 | 0.01 | 0.28 | 0.15 | 85 | 1016.5 |
| 20260831115050 | 68 | 165 | 3.0 | 7.0 | 0.01 | 0.28 | 0.15 | 86 | 1016.6 |
| 20260831114557 | 68 | 148 | 2.0 | 7.0 | 0.01 | 0.28 | 0.15 | 86 | 1016.7 |
| 20260831114047 | 68 | 149 | 3.0 | 7.0 | 0.01 | 0.28 | 0.15 | 87 | 1016.7 |
| 20260831113552 | 67 | 146 | 2.0 | 5.0 | 0.01 | 0.28 | 0.15 | 87 | 1016.7 |
| 20260831113100 | 67 | 166 | 3.0 | 7.0 | 0.01 | 0.28 | 0.15 | 88 | 1016.6 |
| 20260831112506 | 67 | 141 | 3.0 | 7.0 | 0.01 | 0.28 | 0.15 | 88 | 1016.7 |
| 20260831112014 | 67 | 151 | 2.0 | 5.0 | 0.00 | 0.28 | 0.15 | 88 | 1016.8 |
| 20260831111526 | 66 | 167 | 2.0 | 7.0 | 0.00 | 0.28 | 0.14 | 88 | 1017.0 |
| 20260831111036 | 66 | 182 | 2.0 | 7.0 | 0.00 | 0.28 | 0.14 | 88 | 1017.1 |
| 20260831110547 | 66 | 174 | 3.0 | 6.0 | 0.00 | 0.28 | 0.14 | 88 | 1017.3 |
| 20260831110134 | 66 | 158 | 2.0 | 8.0 | 0.01 | 0.28 | 0.14 | 88 | 1017.3 |
| 20260831105538 | 66 | 145 | 2.0 | 8.0 | 0.02 | 0.28 | 0.14 | 88 | 1017.0 |
| 20260831105048 | 66 | 168 | 2.0 | 7.0 | 0.02 | 0.28 | 0.14 | 89 | 1016.9 |
| 20260831104554 | 66 | 160 | 2.0 | 7.0 | 0.02 | 0.28 | 0.14 | 89 | 1016.9 |
| 20260831104106 | 66 | 150 | 3.0 | 7.0 | 0.02 | 0.28 | 0.14 | 89 | 1016.9 |
| 20260831103508 | 66 | 193 | 3.0 | 7.0 | 0.02 | 0.28 | 0.14 | 90 | 1016.9 |
| 20260831103022 | 65 | 184 | 3.0 | 7.0 | 0.02 | 0.28 | 0.14 | 90 | 1016.8 |
| 20260831102524 | 65 | 130 | 2.0 | 5.0 | 0.02 | 0.28 | 0.14 | 91 | 1016.8 |
| 20260831102034 | 65 | 157 | 3.0 | 5.0 | 0.02 | 0.28 | 0.14 | 91 | 1016.9 |
| 20260831101545 | 65 | 125 | 0.0 | 4.0 | 0.02 | 0.28 | 0.14 | 92 | 1016.8 |
| 20260831101054 | 65 | 121 | 1.0 | 4.0 | 0.02 | 0.28 | 0.14 | 92 | 1016.9 |
| 20260831100505 | 65 | 122 | 2.0 | 4.0 | 0.02 | 0.28 | 0.14 | 92 | 1017.1 |
| 20260831100011 | 65 | 192 | 1.0 | 5.0 | 0.00 | 0.26 | 0.13 | 92 | 1017.3 |
| 20260831095518 | 65 | 192 | 1.0 | 5.0 | 0.00 | 0.26 | 0.12 | 92 | 1017.3 |
| 20260831095024 | 65 | 184 | 1.0 | 4.0 | 0.00 | 0.26 | 0.12 | 91 | 1017.4 |
| 20260831094538 | 65 | 132 | 0.0 | 2.0 | 0.01 | 0.26 | 0.12 | 91 | 1017.2 |
| 20260831094038 | 65 | 132 | 0.0 | 2.0 | 0.02 | 0.26 | 0.12 | 91 | 1017.2 |
| 20260831093519 | 65 | 132 | 0.0 | 3.0 | 0.02 | 0.26 | 0.12 | 91 | 1017.0 |
| 20260831093032 | 65 | 132 | 1.0 | 3.0 | 0.02 | 0.26 | 0.12 | 91 | 1017.0 |
| 20260831092540 | 65 | 134 | 0.0 | 3.0 | 0.02 | 0.26 | 0.12 | 91 | 1017.0 |
| 20260831092026 | 65 | 134 | 1.0 | 3.0 | 0.02 | 0.26 | 0.12 | 91 | 1017.0 |
| 20260831091534 | 65 | 143 | 1.0 | 3.0 | 0.02 | 0.26 | 0.12 | 91 | 1017.0 |
| 20260831091035 | 65 | 143 | 1.0 | 3.0 | 0.02 | 0.26 | 0.12 | 90 | 1017.2 |
| 20260831090545 | 65 | 143 | 1.0 | 3.0 | 0.02 | 0.26 | 0.12 | 90 | 1017.2 |
| 20260831090046 | 66 | 166 | 1.0 | 4.0 | 0.02 | 0.26 | 0.12 | 90 | 1017.2 |
| 20260831085553 | 66 | 167 | 2.0 | 3.0 | 0.02 | 0.26 | 0.12 | 90 | 1017.2 |
| 20260831085036 | 66 | 167 | 1.0 | 4.0 | 0.02 | 0.26 | 0.12 | 90 | 1017.4 |
| 20260831084547 | 66 | 173 | 0.0 | 4.0 | 0.01 | 0.25 | 0.11 | 90 | 1017.6 |
| 20260831084015 | 66 | 144 | 1.0 | 4.0 | 0.00 | 0.24 | 0.10 | 90 | 1017.6 |
| 20260831083503 | 66 | 131 | 0.0 | 3.0 | 0.00 | 0.24 | 0.10 | 90 | 1017.5 |
| 20260831083020 | 66 | 131 | 0.0 | 3.0 | 0.00 | 0.24 | 0.10 | 90 | 1017.4 |
| 20260831082522 | 66 | 132 | 1.0 | 3.0 | 0.00 | 0.24 | 0.10 | 90 | 1017.3 |
| 20260831082004 | 66 | 132 | 1.0 | 3.0 | 0.00 | 0.24 | 0.10 | 90 | 1017.4 |
| 20260831081521 | 66 | 132 | 0.0 | 3.0 | 0.00 | 0.24 | 0.10 | 90 | 1017.4 |
| 20260831081031 | 66 | 132 | 2.0 | 3.0 | 0.00 | 0.24 | 0.10 | 90 | 1017.4 |
| 20260831080536 | 66 | 132 | 1.0 | 4.0 | 0.00 | 0.24 | 0.10 | 90 | 1017.4 |
| 20260831080043 | 66 | 132 | 1.0 | 4.0 | 0.00 | 0.24 | 0.10 | 91 | 1017.5 |
| 20260831075549 | 66 | 133 | 2.0 | 3.0 | 0.01 | 0.24 | 0.10 | 91 | 1017.5 |
| 20260831075056 | 66 | 133 | 2.0 | 3.0 | 0.01 | 0.24 | 0.10 | 91 | 1017.5 |
| 20260831074601 | 66 | 157 | 1.0 | 3.0 | 0.01 | 0.24 | 0.10 | 90 | 1017.6 |
| 20260831074006 | 66 | 157 | 1.0 | 3.0 | 0.01 | 0.24 | 0.10 | 90 | 1017.7 |
| 20260831073514 | 66 | 158 | 1.0 | 5.0 | 0.01 | 0.24 | 0.10 | 90 | 1017.8 |
| 20260831073006 | 66 | 158 | 1.0 | 6.0 | 0.01 | 0.24 | 0.10 | 90 | 1017.9 |
| 20260831072515 | 66 | 161 | 1.0 | 6.0 | 0.01 | 0.24 | 0.10 | 91 | 1017.9 |
| 20260831072021 | 66 | 155 | 2.0 | 11.0 | 0.01 | 0.24 | 0.10 | 91 | 1018.0 |
| 20260831071523 | 65 | 195 | 3.0 | 11.0 | 0.01 | 0.24 | 0.10 | 91 | 1017.9 |
| 20260831071017 | 65 | 132 | 2.0 | 5.0 | 0.01 | 0.24 | 0.10 | 91 | 1017.8 |
| 20260831070508 | 65 | 173 | 1.0 | 3.0 | 0.02 | 0.24 | 0.10 | 91 | 1018.0 |
| 20260831070048 | 65 | 182 | 1.0 | 5.0 | 0.02 | 0.24 | 0.10 | 91 | 1018.2 |
| 20260831065558 | 65 | 196 | 1.0 | 5.0 | 0.01 | 0.23 | 0.09 | 91 | 1018.3 |
| 20260831065003 | 65 | 188 | 1.0 | 6.0 | 0.01 | 0.23 | 0.09 | 91 | 1018.4 |
| 20260831064529 | 65 | 173 | 1.0 | 8.0 | 0.01 | 0.23 | 0.09 | 91 | 1018.3 |
| 20260831064028 | 65 | 199 | 2.0 | 9.0 | 0.01 | 0.23 | 0.09 | 91 | 1018.4 |
| 20260831063539 | 65 | 178 | 3.0 | 9.0 | 0.01 | 0.23 | 0.09 | 92 | 1018.3 |
| 20260831063049 | 65 | 169 | 2.0 | 7.0 | 0.01 | 0.23 | 0.09 | 92 | 1018.2 |
| 20260831062552 | 65 | 201 | 2.0 | 6.0 | 0.01 | 0.23 | 0.09 | 92 | 1018.3 |
| 20260831062059 | 65 | 197 | 1.0 | 6.0 | 0.01 | 0.23 | 0.09 | 92 | 1018.4 |